DMSP 5D-2 F13 DEB, 40681

Orbit data source: Space-Track

DMSP 5D-2 F13 DEB, 40681 is space debris in SSO originally from a launch on Fri, 24 Mar 1995 UTC launched from the Air Force Western Test Range (AFWTR). Debris objects in space refer to the collection of defunct objects orbiting the Earth. Examples of debris include non-operational satellites, rocket bodies, and fragments generated from explosions, collisions, or faulty payload assembly.

Loading next visibility...
Identifier
40681, 1995-015FV
Orbit
SSO
Country
Flag of USUS
Related business
Manufacturer
Unknown
Mission
Spacecraft
Bus & Motor
Unknown
Mass
Unknown
Launch date (UTC)
1995-03-24 (31 years ago)
Launch vehicle
Unknown
Launch site
Air Force Western Test Range (AFWTR)
Object type
Payload
Rocket body
Debris
Shape & HBR
Unknown shape, 0.1 m
Radar Cross Section
Small (<0.1 m²)

Expand to show TLE details & history
Last TLE update: 2 days ago

TLE from 2 days ago
0 DMSP 5D-2 F13 DEB
1 40681U 95015FV  25337.53258931  .00006899  00000-0  24020-2 0  9997
2 40681  98.7157   6.4851 0004626 274.1879  85.8777 14.35699886552629
Epoch: 2025-12-03T12:46Z
TLE epoch observation values (Epoch: 2025-12-03T12:46:55.716Z)
Latitude
-0.00006°
Longitude
102.15093°
Altitude
775.441 km
Speed
7.466 km/s
True Right ascension
00h 25m 56s
True Declination
0° 00' 00"
Sunlit
Object was in daylight at epoch
Visualization orbit readout
Latitude
Unknown
Longitude
Unknown
Altitude
Unknown
Speed
Unknown
Apparent Right ascension
Unknown
Apparent Declination
Unknown
Sunlit
N/A
Visualization observer readout
Local Sidereal Time
06:03:24
Azimuth
Unknown
Elevation
Unknown
Doppler factor
Unknown
Orbital elements
Apogee altitude
773.186 km
Perigee altitude
766.573 km
Semi-major axis
7,148.016 km
Eccentricity
0.00046
Inclination
98.7157°
RAAN
6.4851°
Arg. of periapsis
274.1879°
True anomaly
85.93058°
Mean anomaly
85.8777°
Eccentric anomaly
85.90414°
Mean motion
3.59141 °/min
Orbital period
100.24 mins
BSTAR
0.002402

Documentation

Showing up to 5 results
|